Location: Ahstedt
(52.2048°N, 10.1060°E)
Time: 22:41:08
(UTC+00:00)

Cosmos 540 Rocket - Pass Details

Date: 17 April 2026
Orbit: 734 x 748 km, 74.1° (Epoch: 15 May)

Event Time Altitude Azimuth Distance (km) Brightness Sun altitude
Exits shadow 01:22:59 - 139° (SE) 2,749 6.2 -22.0°
Reaches altitude 10° 01:25:03 10° 122° (ESE) 2,259 5.9 -21.8°
Maximum altitude 01:27:32 14° 93° (E) 2,019 6.0 -21.6°
Drops below altitude 10° 01:30:01 10° 64° (ENE) 2,271 6.8 -21.4°
Sets 01:33:32 0° 39° (NE) 3,203 8.3 -21.0°
